Location: Risskov
(56.1972°N, 10.2480°E)
Time: 12:34:08
(UTC+00:00)

Cosmos 1408 - Pass Details

Date: 05 July 2020
Orbit: 470 x 493 km, 82.6° (Epoch: 07 August)

Event Time Altitude Azimuth Distance (km) Brightness Sun altitude
Exits shadow 21:28:56 10° 147° (SSE) 1,655 4.6 -7.5°
Reaches altitude 10° 21:28:59 10° 147° (SSE) 1,639 4.6 -7.5°
Maximum altitude 21:31:58 26° 90° (E) 982 3.9 -7.7°
Drops below altitude 10° 21:34:59 10° 33° (NNE) 1,649 5.7 -7.8°
Sets 21:37:18 0° 21° (NNE) 2,532 7.0 -8.0°
